Terminal Aerodrome Forecast
Issued by NWS

Home | Current Version | Previous Version | Graphics & Text | Print | Product List | Glossary Off
Versions: 1 2 3 4 5 6 7 8 9 10 11 12 13 14 15 16 17 18 19 20 21 22 23 24 25 26 27 28 29 30 31 32 33 34 35 36

000
FTUS43 KDDC 241100
TAFGCK
TAF
KGCK 241127Z 2412/2512 16006KT P6SM BKN007
      TEMPO 2412/2414 SCT007
     FM241400 17012KT P6SM SCT012
     FM241700 20019G28KT P6SM SCT120
     FM250200 17015KT P6SM SKC=

USA.gov is the U.S. government's official web portal to all federal, state and local government web resources and services.